CDT,Max TemperatureF,Mean TemperatureF,Min TemperatureF,Max Dew PointF,MeanDew PointF,Min DewpointF,Max Humidity, Mean Humidity, Min Humidity, Max Sea Level PressureIn, Mean Sea Level PressureIn, Min Sea Level PressureIn, Max VisibilityMiles, Mean VisibilityMiles, Min VisibilityMiles, Max Wind SpeedMPH, Mean Wind SpeedMPH, Max Gust SpeedMPH,PrecipitationIn, CloudCover, Events, WindDirDegrees
2013-8-1,86,71,55,63,59,55,93,67,40,30.07,30.00,29.89,10,9,6,14,4,17,0.00,0,,226
2013-8-2,82,73,63,63,60,55,93,69,45,30.01,29.92,29.88,10,10,8,23,6,30,T,2,Rain,3
2013-8-3,80,68,56,60,54,50,90,64,37,30.18,30.11,30.02,10,10,9,13,5,17,0.00,1,,13
2013-8-4,81,66,51,57,54,51,100,70,39,30.19,30.13,30.04,10,10,8,16,5,24,0.00,0,,141
2013-8-5,83,72,61,70,65,57,93,74,55,30.01,29.90,29.82,10,10,6,15,6,20,0.00,3,,220
2013-8-6,89,75,61,71,65,60,100,73,46,29.88,29.82,29.77,10,9,2,15,5,18,0.00,0,,217
2013-8-7,80,72,64,68,63,59,100,77,54,30.00,29.90,29.79,10,10,4,20,8,24,0.06,1,Thunderstorm,357
2013-8-8,82,68,54,62,58,52,93,69,45,30.03,30.00,29.97,10,10,8,10,2,16,0.00,1,,70
2013-8-9,82,70,57,64,59,52,93,66,39,30.13,30.05,29.99,10,10,8,16,5,24,0.00,3,,355
2013-8-10,82,68,53,65,57,52,93,68,42,30.20,30.15,30.08,10,9,6,9,2,14,0.00,2,,188
2013-8-11,85,72,58,65,62,57,93,72,51,30.11,30.05,29.97,10,9,2,26,7,33,0.73,2,Rain-Thunderstorm,214
2013-8-12,83,72,60,66,62,53,93,66,39,30.05,30.01,29.99,10,7,1,20,8,26,T,4,Rain-Thunderstorm,337
2013-8-13,76,65,53,58,54,52,93,70,46,30.17,30.11,30.04,10,10,7,13,4,16,0.00,0,,26
2013-8-14,76,63,49,56,50,44,100,68,35,30.23,30.18,30.12,10,10,8,9,2,15,0.00,1,,163
2013-8-15,73,63,52,56,54,51,87,68,49,30.16,30.13,30.10,10,10,10,13,4,16,0.00,3,,184
2013-8-16,78,64,49,57,52,48,96,68,39,30.21,30.17,30.14,10,9,7,10,2,15,0.00,0,,149
2013-8-17,81,66,50,57,52,48,96,66,36,30.23,30.19,30.12,10,7,0,12,2,14,0.00,0,Fog,156
2013-8-18,82,67,51,60,54,50,100,70,39,30.18,30.14,30.06,10,5,0,14,4,17,0.00,1,Fog,177
2013-8-19,84,69,54,63,60,54,100,74,48,30.08,30.03,29.97,10,7,1,17,6,23,0.00,2,,177
2013-8-20,90,77,63,68,65,61,87,67,47,29.99,29.95,29.90,10,10,8,18,10,28,0.00,3,,182
2013-8-21,90,79,67,68,67,65,90,69,47,29.97,29.95,29.93,10,9,7,18,8,24,0.00,0,,209
2013-8-22,86,76,66,69,67,64,93,72,51,30.08,30.04,29.97,10,9,7,12,5,15,0.00,1,,180
2013-8-23,86,75,63,70,67,63,100,81,61,30.13,30.09,30.02,10,5,0,14,6,18,0.00,3,Fog,134
2013-8-24,90,79,68,72,69,66,93,73,52,30.12,30.07,30.03,10,9,4,17,8,23,0.00,0,,155
2013-8-25,94,80,65,70,67,64,93,70,46,30.14,30.08,30.03,10,8,4,20,8,24,0.00,0,,181
2013-8-26,95,83,70,72,69,66,90,67,44,30.08,30.01,29.93,10,9,5,16,9,22,0.00,0,,205
2013-8-27,95,84,73,71,69,68,84,64,43,29.94,29.89,29.84,10,10,9,21,11,25,0.00,0,,222
2013-8-28,94,80,65,72,68,64,97,72,46,29.98,29.94,29.90,10,10,7,13,4,16,0.00,0,,241
2013-8-29,94,80,65,72,68,64,93,70,46,30.02,29.96,29.89,10,10,9,15,4,24,0.00,1,,178
2013-8-30,97,81,65,76,69,64,100,71,42,29.90,29.85,29.76,10,6,0,18,6,23,0.00,1,Fog,310
2013-8-31,90,79,67,70,67,62,93,68,43,29.84,29.80,29.76,10,10,8,10,5,13,0.00,0,,348